Location: Borbetomagus
(49.6328°N, 8.3592°E)
Time: 09:43:29
(UTC+00:00)

PKM - Pass Details

Date: 19 May 2025
Orbit: 410 x 13726 km, 55.3° (Epoch: 21 June)

Event Time Altitude Azimuth Distance (km) Brightness Sun altitude
Rises 22:17:37 0° 255° (WSW) 2,371 7.1 -18.9°
Reaches altitude 10° 22:19:23 10° 260° (W) 1,486 6.1 -19.0°
Maximum altitude 22:22:04 56° 341° (NNW) 592 4.3 -19.1°
Drops below altitude 10° 22:26:38 10° 61° (ENE) 2,493 7.3 -19.3°
Sets 22:30:35 0° 66° (ENE) 4,395 8.5 -19.4°
